TimeCDT,TemperatureF,Dew PointF,Humidity,Sea Level PressureIn,VisibilityMPH,Wind Direction,Wind SpeedMPH,Gust SpeedMPH,PrecipitationIn,Events,Conditions,WindDirDegrees,DateUTC
12:35 AM,48.7,39.2,70,29.92,10.0,NNW,6.9,-,N/A,,Clear,330,2012-10-02 05:35:00
12:55 AM,47.7,38.5,70,29.92,10.0,NNW,5.8,-,N/A,,Clear,330,2012-10-02 05:55:00
1:15 AM,47.5,38.5,71,29.92,10.0,NNW,4.6,-,N/A,,Clear,340,2012-10-02 06:15:00
1:35 AM,46.6,38.3,73,29.92,10.0,NNW,5.8,-,N/A,,Clear,330,2012-10-02 06:35:00
1:55 AM,46.6,38.8,74,29.93,10.0,NNW,5.8,-,N/A,,Clear,340,2012-10-02 06:55:00
2:15 AM,46.8,38.7,73,29.92,10.0,NNW,4.6,-,N/A,,Clear,330,2012-10-02 07:15:00
2:35 AM,46.9,38.3,72,29.92,10.0,NW,4.6,-,N/A,,Clear,320,2012-10-02 07:35:00
3:15 AM,47.3,39.4,74,29.93,10.0,NW,8.1,-,N/A,,Clear,310,2012-10-02 08:15:00
3:35 AM,45.5,38.3,76,29.93,10.0,NNW,3.5,-,N/A,,Clear,340,2012-10-02 08:35:00
3:55 AM,45.9,38.3,75,29.93,10.0,NNW,4.6,-,N/A,,Clear,330,2012-10-02 08:55:00
4:15 AM,44.6,37.4,76,29.93,10.0,NNW,4.6,-,N/A,,Clear,330,2012-10-02 09:15:00
4:35 AM,45.3,37.9,75,29.93,10.0,NNW,6.9,-,N/A,,Clear,330,2012-10-02 09:35:00
4:55 AM,45.7,37.9,74,29.93,10.0,NNW,4.6,-,N/A,,Clear,340,2012-10-02 09:55:00
5:15 AM,44.8,37.6,76,29.93,10.0,NNW,6.9,-,N/A,,Clear,330,2012-10-02 10:15:00
5:55 AM,43.0,36.9,79,29.94,10.0,NNW,3.5,-,N/A,,Clear,330,2012-10-02 10:55:00
6:15 AM,41.5,36.1,81,29.94,10.0,NW,3.5,-,N/A,,Clear,310,2012-10-02 11:15:00
6:35 AM,42.3,36.9,81,29.94,10.0,NW,6.9,-,N/A,,Clear,320,2012-10-02 11:35:00
6:55 AM,39.6,35.4,85,29.94,10.0,NW,3.5,-,N/A,,Clear,310,2012-10-02 11:55:00
7:15 AM,41.9,36.9,82,29.95,10.0,Calm,Calm,-,N/A,,Clear,0,2012-10-02 12:15:00
7:35 AM,39.6,35.4,85,29.95,10.0,NW,3.5,-,N/A,,Clear,310,2012-10-02 12:35:00
7:55 AM,40.8,36.3,84,29.96,10.0,NW,3.5,-,N/A,,Clear,320,2012-10-02 12:55:00
8:15 AM,44.2,40.1,85,29.96,7.0,Calm,Calm,-,N/A,,Clear,0,2012-10-02 13:15:00
8:55 AM,53.1,44.8,73,29.96,10.0,North,4.6,-,N/A,,Clear,10,2012-10-02 13:55:00
9:15 AM,55.6,45.9,70,29.96,10.0,NNE,5.8,-,N/A,,Clear,30,2012-10-02 14:15:00
9:35 AM,57.6,46.6,67,29.96,10.0,NNE,10.4,-,N/A,,Clear,20,2012-10-02 14:35:00
9:55 AM,58.6,46.4,64,29.96,10.0,NNE,8.1,-,N/A,,Clear,30,2012-10-02 14:55:00
10:15 AM,59.5,46.6,62,29.96,10.0,NNE,6.9,-,N/A,,Clear,30,2012-10-02 15:15:00
11:15 AM,64.0,47.3,54,29.95,10.0,NE,4.6,-,N/A,,Clear,40,2012-10-02 16:15:00
11:35 AM,64.4,47.3,54,29.95,10.0,NNE,4.6,-,N/A,,Clear,30,2012-10-02 16:35:00
11:55 AM,65.7,46.9,51,29.95,10.0,Calm,Calm,-,N/A,,Clear,0,2012-10-02 16:55:00
12:15 PM,66.9,46.4,48,29.94,10.0,NE,5.8,-,N/A,,Clear,50,2012-10-02 17:15:00
12:35 PM,67.6,45.3,45,29.94,10.0,NE,5.8,-,N/A,,Clear,40,2012-10-02 17:35:00
12:55 PM,68.5,45.0,43,29.93,10.0,North,6.9,-,N/A,,Clear,10,2012-10-02 17:55:00
1:15 PM,69.1,42.6,38,29.92,7.0,Calm,Calm,-,N/A,,Clear,0,2012-10-02 18:15:00
1:35 PM,70.2,41.4,35,29.91,5.0,Calm,Calm,-,N/A,,Haze,0,2012-10-02 18:35:00
1:55 PM,70.9,41.7,35,29.90,5.0,Calm,Calm,-,N/A,,Haze,0,2012-10-02 18:55:00
2:15 PM,72.0,41.7,34,29.90,7.0,WNW,4.6,-,N/A,,Clear,290,2012-10-02 19:15:00
2:35 PM,71.2,41.2,34,29.89,7.0,SW,3.5,-,N/A,,Clear,220,2012-10-02 19:35:00
2:55 PM,72.5,41.7,33,29.89,7.0,West,6.9,-,N/A,,Clear,280,2012-10-02 19:55:00
3:15 PM,72.3,40.6,32,29.89,7.0,North,3.5,-,N/A,,Clear,10,2012-10-02 20:15:00
3:35 PM,72.3,39.4,30,29.88,7.0,Calm,Calm,-,N/A,,Clear,0,2012-10-02 20:35:00
3:55 PM,73.0,39.6,30,29.88,10.0,Calm,Calm,-,N/A,,Clear,0,2012-10-02 20:55:00
4:15 PM,72.9,40.6,31,29.87,7.0,South,3.5,-,N/A,,Clear,190,2012-10-02 21:15:00
4:55 PM,72.7,38.7,29,29.87,7.0,Calm,Calm,-,N/A,,Clear,0,2012-10-02 21:55:00
5:15 PM,72.5,38.7,29,29.87,10.0,Calm,Calm,-,N/A,,Clear,0,2012-10-02 22:15:00
5:35 PM,72.1,41.5,33,29.87,7.0,Calm,Calm,-,N/A,,Clear,0,2012-10-02 22:35:00
5:55 PM,72.3,38.5,29,29.87,7.0,Calm,Calm,-,N/A,,Clear,0,2012-10-02 22:55:00
6:15 PM,71.2,39.0,31,29.88,10.0,Calm,Calm,-,N/A,,Clear,0,2012-10-02 23:15:00
6:35 PM,70.2,37.9,31,29.88,10.0,Calm,Calm,-,N/A,,Clear,0,2012-10-02 23:35:00
6:55 PM,67.5,38.3,34,29.88,10.0,Calm,Calm,-,N/A,,Clear,0,2012-10-02 23:55:00
7:15 PM,61.0,38.3,43,29.88,10.0,Calm,Calm,-,N/A,,Clear,0,2012-10-03 00:15:00
7:35 PM,58.8,39.4,49,29.88,4.0,Calm,Calm,-,N/A,,Haze,0,2012-10-03 00:35:00
7:55 PM,61.5,39.2,44,29.89,10.0,Calm,Calm,-,N/A,,Clear,0,2012-10-03 00:55:00
8:15 PM,53.8,39.4,58,29.89,5.0,Calm,Calm,-,N/A,,Haze,0,2012-10-03 01:15:00
8:35 PM,55.9,39.2,53,29.89,5.0,Calm,Calm,-,N/A,,Haze,0,2012-10-03 01:35:00
8:55 PM,55.4,39.4,55,29.90,5.0,Calm,Calm,-,N/A,,Haze,0,2012-10-03 01:55:00
9:15 PM,52.5,38.5,59,29.90,7.0,East,3.5,-,N/A,,Clear,90,2012-10-03 02:15:00
9:35 PM,50.2,39.4,66,29.91,7.0,Calm,Calm,-,N/A,,Clear,0,2012-10-03 02:35:00
9:55 PM,49.5,37.8,64,29.91,10.0,Calm,Calm,-,N/A,,Clear,0,2012-10-03 02:55:00
10:15 PM,48.6,37.0,64,29.91,10.0,Calm,Calm,-,N/A,,Clear,0,2012-10-03 03:15:00
10:35 PM,47.3,37.8,69,29.91,10.0,Calm,Calm,-,N/A,,Clear,0,2012-10-03 03:35:00
10:55 PM,48.9,38.7,68,29.91,10.0,Calm,Calm,-,N/A,,Clear,0,2012-10-03 03:55:00
11:15 PM,47.8,37.9,69,29.92,10.0,Calm,Calm,-,N/A,,Clear,0,2012-10-03 04:15:00
11:35 PM,46.8,37.4,70,29.92,10.0,Calm,Calm,-,N/A,,Clear,0,2012-10-03 04:35:00
11:55 PM,45.9,36.5,70,29.92,10.0,Calm,Calm,-,N/A,,Clear,0,2012-10-03 04:55:00